RH
21 20 20 20 20 20 19 18 17 18 19 21 22 23 21 16 10 6 5 5 5 5 5 5 5 5 5 5 6 6 6 7 7 6 6 5 5 5 5 5 5 6 5 5 6 6 6 6 6 6 6 7 7 7 7 7 7 9 14 14 13 17 17 14 13 14 15 14 15 15 16 17 15 12 12 12 12 12 13 12 12 13 12 12 12 12 12 12
22 21 21 20 20 20 20 19 18 17 18 20 21 23 24 24 21 15 8 5 5 5 5 5 5 5 5 5 5 5 6 6 7 7 5 5 5 5 5 5 5 5 5 5 5 5 6 6 6 6 6 6 7 7 7 7 7 11 15 12 15 20 15 12 11 12 12 12 13 15 15 14 14 12 11 12 12 12 12 12 12 13 13 13 13 13 13 13
23 23 22 20 20 20 21 21 19 18 18 18 19 21 23 24 25 23 18 11 6 5 5 4 5 5 5 6 5 5 6 6 7 7 6 5 5 5 5 5 5 5 5 5 5 5 6 6 6 6 6 6 6 7 7 7 7 10 10 10 17 20 13 9 9 9 10 10 12 13 13 13 13 12 11 11 12 12 13 12 12 12 12 12 12 12 13 13
27 26 24 23 22 23 23 23 22 21 20 19 19 19 21 23 24 24 24 21 15 9 5 4 5 4 5 6 5 5 5 6 7 7 6 5 5 5 5 5 5 5 5 5 5 6 6 6 6 6 6 7 7 7 7 7 8 9 10 12 15 15 11 9 9 9 9 9 11 12 12 12 12 12 11 11 11 13 12 11 11 11 11 12 12 13 13 13
32 30 28 27 26 26 26 25 24 23 22 20 20 19 19 20 21 23 24 25 23 17 11 7 5 4 5 6 5 5 6 7 8 6 6 6 5 5 5 5 5 5 5 5 6 6 7 7 7 6 7 7 7 7 8 7 8 9 11 12 12 11 10 9 9 9 9 9 11 12 12 12 11 11 11 11 11 12 11 9 9 10 10 11 11 12 12 13
35 34 32 31 29 27 26 25 24 23 21 20 20 20 19 19 19 20 22 24 25 23 19 13 8 5 4 6 6 5 6 7 6 5 5 6 6 5 5 5 5 5 5 6 6 7 7 7 7 7 7 8 9 8 8 8 8 10 11 10 9 10 9 9 9 9 10 10 10 11 12 11 10 10 10 11 11 10 10 9 9 10 10 10 11 11 11 12
33 33 32 32 30 28 27 25 24 23 21 20 20 19 19 19 18 18 19 21 23 24 24 20 15 9 6 6 6 6 6 6 6 5 5 5 6 6 5 6 6 6 6 6 7 7 8 8 8 8 8 9 9 9 9 10 9 9 12 11 9 9 9 9 9 9 9 9 10 11 11 11 11 10 11 10 10 9 9 10 10 10 10 10 10 11 11 12
30 30 30 29 29 29 28 27 26 25 23 21 20 20 19 18 18 18 18 19 21 23 24 23 20 16 11 7 6 7 7 6 6 5 6 6 6 6 6 6 6 7 7 7 7 8 8 8 8 8 9 11 10 10 10 10 11 11 12 11 9 9 9 9 9 9 10 9 9 10 11 11 11 10 10 10 9 9 10 10 10 10 11 11 11 11 12 12
25 26 26 26 27 27 27 28 27 26 25 23 21 20 19 18 18 18 19 19 19 21 23 24 23 20 17 11 7 7 7 7 6 6 6 6 7 7 7 7 7 7 7 7 7 8 8 8 8 8 9 11 10 11 11 10 12 12 11 10 9 9 9 9 9 9 10 10 10 10 11 11 10 10 10 10 10 10 10 10 11 11 11 12 11 12 13 13
21 21 21 21 22 23 23 24 25 25 25 24 22 21 20 19 19 19 19 20 19 19 21 23 24 23 20 16 12 9 8 7 7 7 6 7 7 7 7 7 7 8 8 8 8 8 8 8 9 9 9 10 10 12 11 10 11 11 10 9 9 9 10 9 9 10 10 10 11 11 12 12 11 11 11 10 10 10 11 11 11 11 12 12 12 13 14 14
26 24 23 22 21 21 21 22 23 24 24 24 24 24 23 22 20 19 20 20 20 19 19 20 22 23 21 19 16 12 9 7 7 7 7 7 7 8 8 7 8 8 8 8 8 8 8 9 9 9 10 10 10 12 11 11 11 10 9 10 10 11 10 10 10 11 12 11 12 12 13 12 12 12 12 11 10 11 11 11 11 12 12 13 13 14 15 15
31 31 31 31 32 31 28 27 26 26 26 27 27 26 25 24 23 21 20 21 20 19 19 19 20 22 21 19 18 14 10 9 7 7 7 7 7 8 8 8 8 8 8 8 8 9 9 9 8 9 10 10 11 11 11 11 11 9 9 10 14 16 13 11 12 12 12 13 12 13 13 14 14 13 12 11 11 12 12 12 12 13 13 14 15 16 17 16
37 38 39 40 41 41 39 37 34 33 32 31 30 28 26 25 23 22 21 21 21 20 20 19 19 20 20 19 18 14 11 9 8 7 7 7 7 8 8 8 8 8 8 8 9 9 8 8 8 9 10 10 11 11 11 10 9 10 12 12 15 18 18 14 13 13 12 13 13 13 16 17 16 14 12 11 12 13 13 13 13 14 15 15 16 18 18 18
43 43 42 44 45 44 43 41 39 37 34 32 30 28 26 24 23 22 22 22 22 21 21 20 19 19 19 19 19 16 12 10 8 7 7 7 7 8 8 8 8 8 9 8 9 9 8 9 8 9 10 11 11 11 15 15 13 13 13 18 20 17 21 19 13 13 12 13 13 14 17 17 15 14 12 13 13 14 14 14 15 15 16 17 18 19 19 19
44 42 40 44 45 41 39 38 38 35 32 30 29 26 24 23 23 23 22 22 22 22 21 20 20 18 17 18 19 17 15 11 9 8 8 8 8 8 8 8 8 8 9 9 9 9 9 9 9 10 10 11 12 14 20 20 20 21 15 21 25 18 23 22 14 14 13 13 14 14 18 17 14 14 13 13 14 15 15 15 16 16 17 18 18 19 20 20
42 41 39 41 42 40 38 38 36 34 32 33 31 26 23 24 24 24 23 23 23 22 21 21 20 17 15 17 19 18 15 13 11 9 8 8 8 8 8 8 8 8 9 9 9 9 9 9 10 12 11 11 18 22 22 19 22 26 19 19 24 20 22 20 16 16 14 14 14 15 18 17 15 14 13 14 16 17 16 17 18 18 19 19 20 20 20 21
42 41 39 39 40 40 40 39 37 36 34 32 29 24 23 24 24 25 25 24 23 21 20 22 19 15 15 17 19 19 16 14 12 10 9 9 9 9 9 8 8 8 9 9 9 10 10 10 11 13 14 17 22 22 19 19 20 22 20 20 23 22 21 20 19 18 15 16 16 16 18 16 15 15 15 17 18 18 18 18 19 20 20 21 21 21 21 22
40 39 39 39 38 38 38 37 36 34 30 27 25 24 23 23 24 25 25 23 23 21 21 22 18 15 18 20 20 20 18 15 12 10 9 9 9 9 9 9 9 9 9 9 10 10 10 12 13 16 20 21 21 18 17 22 21 17 18 20 22 23 22 22 22 19 17 17 17 18 18 17 16 17 17 19 19 19 19 19 20 21 22 22 22 22 23 23
39 39 37 36 35 36 35 32 30 27 25 24 23 21 21 21 23 24 23 22 22 22 22 21 19 19 21 22 22 21 19 15 11 9 9 10 10 10 11 10 10 10 10 11 11 12 12 13 15 17 19 19 19 20 18 22 21 17 20 22 21 23 23 22 23 22 19 18 19 19 19 19 18 19 20 20 20 20 20 20 20 22 23 24 23 24 25 26
38 38 36 34 34 33 32 29 27 24 25 27 24 22 23 23 24 25 24 24 24 23 22 20 20 21 23 24 24 23 20 16 12 10 9 10 9 10 11 10 11 11 12 14 13 13 13 14 17 17 18 19 19 21 20 22 21 18 20 23 23 24 22 20 21 24 22 19 22 23 22 22 21 22 22 21 21 20 20 21 22 25 26 26 26 27 28 29
34 35 37 37 37 36 35 34 31 27 28 30 29 28 30 31 31 31 30 29 29 27 24 23 23 25 27 28 28 26 23 19 16 13 11 11 10 11 11 12 12 12 15 17 15 16 16 17 23 24 23 21 21 24 22 20 20 19 21 22 23 24 21 20 21 25 24 22 25 26 24 25 25 24 24 22 22 22 22 24 26 28 29 29 29 30 31 31
29 29 32 35 37 37 35 34 31 28 27 27 27 29 31 34 35 36 36 36 35 33 30 29 28 29 30 30 29 28 26 23 19 17 15 13 12 12 12 15 17 18 22 23 22 25 26 25 28 29 26 23 23 27 24 21 21 22 24 22 23 24 24 24 25 28 27 23 26 28 24 25 27 25 25 26 26 26 26 27 29 31 31 31 32 32 33 34
23 22 24 26 28 30 30 30 28 27 26 24 25 27 27 28 30 32 34 35 36 36 36 35 33 33 32 32 32 32 31 29 28 26 23 21 18 18 18 21 24 24 25 26 25 25 24 24 24 23 22 20 20 24 23 22 23 23 24 22 23 25 24 25 27 29 28 25 27 28 26 28 29 27 27 28 28 29 29 29 31 32 32 33 33 34 35 36
26 24 24 25 25 25 26 27 27 27 25 25 26 25 24 24 25 27 28 30 33 34 33 33 33 33 33 34 33 34 34 33 33 31 29 27 25 25 25 24 25 23 23 25 24 23 22 22 21 21 23 20 18 22 23 21 25 28 27 23 24 25 24 25 28 28 27 28 27 26 28 30 29 30 30 29 29 30 31 31 33 33 34 35 35 37 38 39
32 30 30 30 29 28 28 27 25 24 24 25 25 24 24 24 24 26 28 30 33 32 30 29 30 30 30 31 31 32 33 32 31 30 28 27 25 25 25 23 22 21 24 27 25 24 24 23 21 21 25 24 21 22 24 23 24 28 29 25 24 24 24 26 28 28 27 27 26 26 32 34 30 31 33 32 33 34 34 35 35 36 37 37 39 40 41 43
33 31 32 31 31 31 31 29 26 25 24 24 24 25 25 25 26 27 30 35 34 30 30 28 27 27 26 26 26 27 28 27 27 26 26 26 25 24 22 23 22 20 23 26 24 23 22 22 23 24 27 26 23 22 24 26 24 25 28 28 28 26 26 27 27 28 28 28 27 27 33 37 34 33 35 35 36 37 38 40 39 40 41 42 44 45 45 49
32 30 30 28 28 29 31 31 29 27 24 22 23 23 22 24 24 23 28 36 34 29 30 30 27 25 24 23 22 23 22 21 21 21 22 21 21 21 20 22 21 20 23 23 22 24 24 23 25 28 27 24 23 22 25 29 26 26 29 29 28 25 25 27 26 28 30 29 30 31 32 36 37 37 38 38 40 42 43 44 44 44 46 48 50 51 52 55
34 33 32 31 30 31 32 30 27 23 18 17 18 18 19 21 21 22 27 30 28 28 30 31 29 26 25 23 21 22 21 21 20 20 21 20 20 21 21 23 23 25 27 24 24 28 26 23 23 24 25 24 24 24 27 28 25 26 30 29 27 26 27 29 28 30 34 33 33 34 34 39 43 41 42 42 43 46 47 48 49 48 50 52 54 56 57 58
38 38 37 35 32 30 28 24 20 15 11 11 13 13 16 18 20 25 28 24 21 23 25 25 26 26 25 26 25 24 24 24 23 22 22 22 22 21 22 24 25 27 26 23 25 27 24 22 23 22 23 26 26 27 30 29 24 26 30 30 31 33 32 30 31 34 39 38 35 34 35 39 45 43 43 46 46 48 51 51 53 52 53 56 58 58 58 59
41 41 37 31 27 25 22 20 17 13 9 9 10 11 15 21 26 26 23 19 17 18 18 17 18 19 22 27 27 23 23 23 22 21 21 20 19 19 21 21 22 25 26 25 25 25 23 23 24 24 24 25 25 27 31 30 26 27 29 29 30 34 33 33 39 38 38 41 37 37 38 38 46 46 44 49 50 51 54 55 56 56 58 61 61 61 61 63
41 36 28 24 24 25 24 22 18 14 11 10 12 15 19 27 35 29 18 17 18 17 17 16 17 20 22 25 23 20 22 22 20 20 21 21 19 18 20 20 20 25 27 26 25 26 26 25 25 25 24 26 26 26 29 32 31 29 30 29 27 31 31 33 42 39 40 48 42 38 41 41 48 50 48 53 55 56 57 58 60 61 63 66 66 66 67 69
31 24 23 26 29 29 29 25 22 19 15 16 18 21 27 31 31 24 18 18 17 17 18 17 20 23 24 23 21 20 23 22 21 21 23 26 25 22 23 22 20 23 24 24 24 24 25 27 29 27 25 26 26 25 28 32 33 31 31 32 33 38 38 36 43 42 44 49 40 38 43 43 49 52 53 58 59 59 61 60 63 65 67 70 72 73 74 76
22 22 27 33 34 34 33 30 29 25 22 24 24 27 38 38 26 21 23 22 18 19 21 21 23 25 23 22 21 23 23 20 21 22 22 25 27 25 25 25 24 23 21 23 24 22 24 28 29 26 25 26 25 24 26 29 30 28 31 36 37 40 43 45 49 44 42 43 38 40 43 44 51 55 57 62 60 61 63 63 67 70 73 76 78 81 82 82
23 28 32 35 36 36 36 35 34 32 28 28 28 32 40 36 24 21 24 24 23 25 25 25 26 25 22 21 22 24 22 21 22 22 22 26 26 25 25 26 27 25 23 25 25 24 25 26 25 24 25 26 26 26 27 27 29 31 33 36 36 38 41 46 49 45 43 46 42 41 46 52 57 59 60 64 64 65 67 70 74 77 80 82 82 85 87 88
28 31 33 35 36 36 36 35 35 33 30 29 32 38 36 28 23 22 22 23 27 27 26 27 26 23 23 25 26 24 19 21 24 22 23 26 25 25 25 25 27 27 26 27 27 25 26 25 25 27 27 27 28 30 31 29 31 34 35 34 37 41 41 43 49 47 47 54 51 47 52 58 60 62 63 66 69 71 75 78 81 83 85 85 86 88 91 93
31 31 32 35 34 34 35 34 32 30 27 27 31 33 29 24 22 21 22 25 27 28 27 26 25 23 24 27 28 26 20 22 25 22 21 25 25 25 27 26 27 27 25 26 28 28 29 27 27 28 28 28 30 32 33 32 32 35 36 36 39 42 41 44 49 48 50 57 54 52 59 63 64 67 67 69 75 78 81 84 85 87 88 88 90 92 94 96
30 29 31 32 30 31 31 29 28 25 20 23 29 28 25 24 24 26 29 29 27 27 25 22 21 21 22 24 27 28 24 23 24 22 22 24 23 24 28 29 27 27 25 26 29 30 30 29 28 28 28 29 30 32 33 34 35 37 38 40 41 42 46 50 52 54 60 64 57 54 64 69 70 72 71 73 79 82 86 88 88 90 90 91 93 94 95 96
27 28 28 26 26 26 25 23 22 18 15 21 28 27 23 22 23 27 29 28 26 25 23 22 21 21 23 24 27 30 26 23 24 24 23 24 23 23 28 30 27 29 29 27 29 31 31 31 30 29 30 32 31 31 35 36 36 38 39 41 42 45 51 54 55 59 64 69 69 63 63 67 70 74 75 77 83 86 89 90 90 93 93 93 94 95 95 94
24 25 24 21 21 21 19 16 13 11 13 19 24 22 22 23 24 25 26 27 27 24 24 24 23 24 26 25 26 29 27 24 24 25 23 23 25 24 28 29 28 30 31 28 30 33 33 33 33 31 31 33 32 32 36 39 40 40 41 44 45 48 54 54 55 61 65 71 78 73 66 67 70 74 77 82 87 90 91 92 93 94 95 94 94 94 92 87
22 23 21 18 18 16 13 10 8 11 16 20 22 23 23 25 26 26 26 28 27 23 24 25 24 25 26 26 26 28 27 26 27 26 25 25 26 26 28 31 31 32 32 31 32 33 34 35 35 34 32 33 34 35 36 38 41 44 46 47 48 50 56 57 56 60 64 70 80 81 76 71 70 73 80 86 90 92 93 94 94 95 96 94 90 87 84 80
20 21 18 14 13 11 8 8 12 19 24 23 24 27 28 27 27 27 27 28 27 24 24 25 25 25 26 27 28 27 28 29 30 28 27 27 26 26 30 33 35 35 34 34 35 33 35 37 38 37 35 33 34 36 37 39 42 46 48 49 52 55 59 63 64 65 66 70 78 83 80 73 71 76 84 89 92 93 94 95 95 94 92 86 82 81 78 77
17 17 13 9 9 8 8 13 19 23 26 24 23 26 29 29 27 25 25 26 26 26 25 26 27 28 29 28 28 29 29 31 32 29 28 29 28 29 33 36 37 37 35 35 36 34 35 40 41 40 37 35 36 38 41 44 45 47 49 51 56 60 61 65 70 70 69 70 74 80 82 79 78 80 84 88 92 94 96 95 92 88 83 78 77 78 76 75
13 12 9 7 9 9 11 17 22 25 26 25 24 25 26 26 25 24 24 25 25 25 26 27 27 27 28 29 29 30 29 30 31 29 29 32 31 32 37 37 36 37 36 36 37 35 37 41 42 40 37 36 38 40 42 44 45 47 51 55 58 63 65 69 72 73 74 73 74 79 84 84 82 83 87 90 93 96 95 90 85 80 76 74 74 73 71 70
9 9 9 9 10 11 14 19 22 26 28 25 24 24 24 24 24 24 27 27 27 27 27 29 28 27 28 30 31 31 29 29 29 29 31 32 32 35 38 37 37 37 36 37 38 37 38 42 44 44 44 42 44 46 44 45 47 48 52 58 61 63 68 72 74 77 78 75 73 79 85 86 87 89 90 90 91 90 87 81 76 73 71 70 69 70 70 69
9 10 11 12 12 13 16 18 21 27 29 25 23 24 25 24 23 24 28 28 27 28 28 29 29 28 30 31 31 33 33 29 29 31 33 33 33 36 37 37 38 38 37 38 38 37 40 43 44 48 53 55 54 53 49 48 49 48 52 58 62 65 69 72 76 80 81 78 78 82 88 91 91 90 87 84 82 80 77 74 71 70 70 70 70 71 70 66
11 13 14 15 14 14 16 16 18 23 26 24 24 23 24 26 24 24 28 29 28 29 29 29 28 28 30 31 31 34 34 31 30 32 32 34 36 35 35 37 37 36 38 39 38 39 43 45 45 48 51 53 52 50 48 51 51 50 54 59 63 69 71 72 77 81 83 86 86 87 91 90 87 85 81 78 76 75 73 72 71 72 73 72 72 69 62 55
14 17 18 17 14 15 17 17 18 20 22 22 23 22 24 28 27 26 27 27 28 28 27 29 29 27 27 29 29 31 32 31 30 30 31 34 37 34 33 36 35 35 37 37 36 41 45 46 48 49 48 49 48 47 48 52 52 53 59 61 64 70 72 73 78 83 88 92 90 88 88 85 80 79 78 76 74 73 73 73 74 75 75 72 67 59 52 49
15 17 17 16 16 18 21 20 19 21 22 24 26 25 27 30 29 27 27 26 27 27 24 25 28 27 28 29 28 28 30 29 28 31 33 34 36 36 33 34 35 36 38 37 37 40 44 47 48 48 49 49 48 49 50 53 55 58 63 64 66 71 73 75 80 85 89 92 89 86 82 78 76 77 76 75 75 75 76 77 79 78 71 63 55 51 51 54
14 15 15 16 16 18 21 20 19 21 23 27 29 28 29 30 27 26 27 26 26 25 22 22 24 27 30 31 28 27 29 28 28 32 35 35 36 36 36 36 37 38 40 41 42 42 45 49 50 49 49 47 47 50 53 54 57 60 63 68 71 73 73 75 80 84 87 87 84 81 78 75 76 76 75 76 77 78 79 79 77 70 59 53 52 55 58 62
12 13 14 16 16 18 19 20 21 24 27 28 27 27 29 30 27 27 28 25 22 22 22 22 24 28 31 31 29 28 28 28 31 33 34 35 37 38 37 38 41 43 45 46 46 43 42 47 51 51 49 46 47 51 52 53 57 60 65 70 70 69 71 76 79 79 81 82 79 77 76 75 74 73 74 76 77 78 77 72 64 56 52 55 60 62 65 67
12 13 13 16 18 19 19 20 23 29 31 28 25 25 26 26 26 28 27 23 21 21 22 24 25 28 31 30 30 30 28 29 32 32 33 34 37 37 37 40 45 48 50 50 48 46 44 48 53 55 52 47 46 47 47 45 49 55 61 64 63 65 69 71 71 70 72 76 76 74 75 75 72 72 73 75 75 73 68 60 53 53 58 63 67 70 73 76
13 14 14 16 18 20 21 22 25 29 27 24 24 24 23 23 25 25 22 20 21 22 22 23 25 26 28 28 27 28 29 30 31 32 33 35 37 38 41 45 47 47 49 50 49 50 50 51 53 56 54 47 43 45 44 41 44 50 55 58 61 65 65 63 65 66 67 72 75 75 75 75 73 73 74 74 71 66 60 57 57 63 68 72 78 83 84 86